Temp
-18 -17 -17 -16 -16 -16 -16 -16 -15 -15 -15 -15 -15 -15 -15 -15 -15 -15 -16 -16 -15 -15 -15 -15 -15 -15 -15 -15 -15 -16 -16 -16 -16 -16 -15 -15 -15 -15 -15 -15 -15 -15 -15 -15
-18 -17 -17 -17 -16 -16 -16 -16 -16 -16 -16 -16 -16 -15 -15 -15 -16 -16 -16 -16 -16 -16 -16 -16 -15 -15 -15 -15 -16 -16 -16 -16 -16 -16 -16 -16 -15 -16 -16 -16 -16 -15 -15 -15
-18 -18 -18 -17 -17 -17 -17 -17 -17 -17 -16 -16 -16 -16 -16 -15 -15 -16 -15 -15 -16 -16 -16 -16 -16 -16 -16 -16 -16 -16 -16 -16 -16 -17 -17 -17 -17 -16 -16 -16 -16 -16 -16 -15
-18 -18 -18 -18 -18 -18 -18 -18 -17 -17 -17 -17 -16 -16 -15 -15 -15 -15 -15 -16 -16 -16 -16 -16 -16 -16 -16 -16 -16 -16 -17 -16 -17 -17 -17 -17 -17 -17 -16 -16 -16 -16 -15 -15
-19 -18 -18 -18 -18 -18 -18 -18 -18 -18 -18 -18 -17 -17 -16 -16 -15 -15 -15 -15 -16 -16 -16 -16 -16 -16 -16 -17 -16 -17 -17 -17 -17 -17 -17 -17 -17 -17 -17 -17 -16 -16 -16 -16
-19 -18 -18 -18 -18 -18 -19 -18 -18 -18 -18 -18 -18 -18 -17 -16 -16 -16 -15 -15 -15 -15 -16 -16 -16 -16 -16 -17 -17 -17 -17 -17 -17 -17 -17 -17 -17 -17 -17 -17 -17 -17 -16 -16
-20 -19 -19 -19 -19 -19 -20 -18 -18 -18 -18 -18 -18 -18 -18 -17 -17 -17 -16 -15 -15 -15 -16 -16 -15 -15 -16 -16 -16 -17 -17 -17 -17 -17 -17 -17 -17 -17 -17 -17 -17 -17 -17 -17
-20 -20 -20 -19 -19 -19 -19 -19 -19 -18 -18 -18 -18 -17 -17 -17 -18 -18 -17 -16 -16 -16 -16 -16 -16 -16 -16 -16 -16 -16 -17 -16 -16 -17 -17 -17 -17 -17 -16 -17 -17 -17 -17 -17
-21 -21 -20 -20 -19 -19 -19 -19 -19 -19 -19 -18 -18 -18 -18 -18 -17 -17 -18 -18 -17 -16 -16 -16 -16 -16 -16 -16 -16 -16 -16 -16 -16 -16 -17 -17 -17 -17 -16 -17 -17 -17 -17 -18
-21 -21 -20 -20 -20 -20 -20 -20 -20 -20 -20 -19 -19 -19 -19 -19 -18 -18 -17 -18 -18 -17 -17 -17 -16 -16 -16 -16 -16 -16 -16 -17 -17 -16 -16 -16 -17 -17 -17 -16 -17 -17 -17 -18
-21 -21 -21 -20 -20 -20 -20 -20 -20 -20 -20 -20 -20 -19 -19 -19 -19 -18 -18 -17 -18 -18 -17 -17 -17 -17 -17 -17 -17 -17 -17 -17 -17 -17 -17 -17 -17 -17 -17 -17 -17 -17 -17 -18
-21 -21 -21 -21 -20 -20 -20 -20 -20 -20 -20 -20 -20 -20 -20 -20 -20 -19 -19 -18 -18 -18 -18 -18 -17 -17 -18 -17 -17 -18 -17 -17 -17 -17 -17 -17 -17 -17 -17 -17 -17 -17 -18 -17
-21 -21 -21 -21 -21 -21 -21 -21 -20 -20 -20 -20 -20 -20 -20 -20 -20 -20 -19 -19 -20 -19 -19 -18 -18 -17 -18 -18 -18 -17 -17 -18 -18 -18 -18 -17 -17 -17 -17 -17 -17 -18 -18 -18
-21 -21 -21 -21 -21 -21 -21 -21 -21 -21 -21 -21 -21 -21 -20 -20 -20 -20 -20 -20 -20 -20 -19 -19 -18 -18 -18 -17 -18 -18 -18 -18 -18 -18 -18 -18 -18 -17 -18 -17 -17 -18 -18 -18
-22 -21 -21 -21 -21 -21 -21 -21 -21 -21 -21 -21 -21 -21 -21 -20 -20 -20 -20 -20 -20 -20 -20 -20 -19 -19 -18 -18 -17 -17 -17 -17 -18 -18 -18 -18 -18 -18 -18 -18 -19 -19 -19 -19
-22 -22 -22 -22 -22 -22 -22 -22 -22 -22 -22 -22 -22 -22 -21 -21 -21 -21 -20 -20 -21 -20 -20 -20 -20 -20 -19 -19 -19 -19 -19 -19 -19 -18 -17 -18 -19 -19 -19 -20 -20 -20 -20 -20
-23 -23 -23 -23 -23 -23 -24 -24 -24 -23 -23 -23 -23 -23 -22 -22 -22 -21 -21 -21 -22 -21 -21 -21 -21 -21 -21 -20 -20 -20 -20 -20 -20 -19 -18 -19 -20 -21 -21 -21 -21 -21 -21 -21
-24 -24 -24 -24 -24 -24 -24 -24 -24 -23 -23 -23 -23 -23 -23 -23 -22 -23 -22 -22 -22 -22 -22 -21 -21 -21 -21 -21 -21 -21 -20 -21 -21 -21 -20 -21 -21 -21 -21 -21 -21 -22 -22 -22
-24 -24 -24 -24 -24 -24 -24 -24 -24 -24 -23 -23 -23 -23 -23 -22 -22 -22 -22 -22 -22 -22 -21 -21 -21 -21 -21 -22 -22 -22 -21 -21 -21 -21 -22 -22 -22 -22 -22 -22 -22 -22 -22 -22
-24 -24 -24 -24 -24 -24 -24 -24 -24 -24 -23 -24 -23 -23 -23 -23 -23 -23 -22 -22 -22 -22 -22 -22 -22 -22 -22 -22 -22 -22 -22 -22 -22 -22 -21 -22 -22 -22 -22 -22 -22 -22 -23 -23
-24 -24 -24 -24 -24 -24 -24 -24 -24 -24 -24 -24 -24 -24 -23 -23 -23 -22 -23 -22 -22 -22 -22 -22 -22 -22 -22 -22 -22 -23 -23 -23 -23 -23 -23 -23 -23 -23 -23 -23 -23 -23 -24 -24
-24 -24 -24 -24 -24 -24 -24 -24 -24 -24 -24 -24 -24 -24 -23 -23 -23 -23 -23 -23 -23 -23 -23 -23 -23 -23 -23 -23 -23 -23 -24 -24 -24 -24 -24 -24 -25 -25 -25 -25 -25 -25 -25 -25
-24 -24 -24 -24 -25 -24 -24 -24 -24 -24 -24 -24 -24 -24 -24 -24 -24 -24 -24 -24 -24 -24 -25 -25 -25 -25 -25 -25 -25 -26 -26 -26 -26 -26 -26 -26 -26 -26 -25 -25 -25 -25 -25 -26
-24 -24 -24 -25 -25 -25 -25 -25 -25 -25 -25 -25 -26 -26 -26 -26 -26 -26 -26 -26 -26 -26 -26 -26 -26 -26 -26 -26 -26 -26 -26 -26 -26 -26 -26 -26 -26 -26 -26 -26 -27 -27 -28 -28
-25 -26 -26 -26 -27 -27 -27 -27 -27 -27 -27 -27 -27 -27 -28 -27 -27 -27 -27 -27 -27 -27 -27 -27 -27 -27 -27 -26 -26 -27 -27 -27 -27 -27 -27 -27 -28 -28 -29 -30 -30 -31 -31 -31
-26 -27 -27 -27 -27 -27 -27 -27 -28 -28 -28 -28 -28 -28 -28 -28 -28 -28 -27 -27 -27 -27 -27 -27 -27 -28 -28 -28 -28 -28 -29 -29 -30 -30 -31 -31 -32 -32 -32 -32 -32 -32 -32 -32
-27 -27 -27 -27 -27 -27 -28 -28 -28 -28 -28 -28 -29 -29 -29 -29 -29 -29 -29 -29 -29 -29 -29 -29 -30 -30 -31 -31 -32 -32 -33 -33 -33 -33 -32 -32 -32 -32 -32 -32 -32 -33 -33 -34
Height
5609 5616 5621 5625 5631 5635 5639 5644 5647 5652 5654 5660 5664 5667 5669 5671 5674 5673 5676 5679 5682 5683 5684 5685 5687 5687 5687 5688 5689 5689 5689 5690 5691 5690 5691 5691 5691 5690 5690 5690 5690 5690 5690 5690
5606 5611 5616 5619 5624 5627 5630 5634 5638 5642 5647 5650 5655 5657 5659 5662 5662 5665 5668 5670 5674 5676 5678 5679 5679 5680 5680 5681 5682 5682 5683 5683 5682 5683 5683 5683 5684 5683 5684 5684 5683 5681 5682 5681
5602 5606 5610 5616 5620 5622 5625 5628 5632 5635 5638 5642 5645 5647 5648 5648 5652 5658 5660 5661 5662 5664 5666 5670 5672 5673 5673 5674 5672 5673 5674 5674 5674 5673 5674 5675 5674 5674 5674 5674 5673 5673 5671 5670
5596 5601 5606 5610 5614 5617 5618 5623 5625 5627 5629 5633 5636 5637 5639 5641 5644 5647 5650 5655 5656 5656 5658 5660 5662 5663 5665 5665 5665 5665 5665 5665 5664 5666 5665 5665 5665 5665 5664 5663 5663 5663 5663 5661
5590 5596 5600 5604 5607 5612 5614 5616 5617 5620 5622 5624 5627 5629 5633 5635 5636 5638 5640 5644 5647 5650 5651 5651 5652 5653 5655 5656 5656 5655 5658 5658 5657 5656 5655 5654 5654 5654 5653 5652 5653 5653 5651 5649
5582 5587 5593 5596 5599 5604 5607 5609 5612 5614 5614 5615 5617 5620 5621 5624 5627 5629 5630 5633 5634 5638 5639 5641 5643 5643 5642 5644 5645 5647 5649 5648 5648 5647 5647 5645 5644 5644 5643 5643 5642 5641 5641 5639
5576 5579 5583 5588 5590 5593 5598 5603 5603 5605 5605 5606 5608 5610 5613 5614 5616 5619 5621 5622 5624 5626 5628 5630 5631 5630 5632 5634 5634 5635 5636 5637 5637 5637 5636 5635 5633 5633 5633 5632 5629 5628 5626 5625
5567 5571 5575 5579 5583 5587 5587 5590 5594 5594 5595 5598 5598 5599 5600 5605 5606 5607 5609 5611 5612 5614 5616 5618 5619 5620 5621 5622 5623 5623 5624 5624 5624 5624 5623 5622 5621 5621 5618 5617 5616 5615 5612 5610
5560 5563 5565 5567 5571 5574 5577 5579 5582 5586 5587 5588 5588 5588 5588 5589 5591 5593 5595 5598 5600 5601 5602 5604 5606 5608 5609 5609 5609 5610 5610 5611 5611 5611 5610 5608 5607 5606 5604 5604 5601 5601 5598 5596
5555 5556 5558 5562 5565 5568 5570 5572 5574 5576 5579 5579 5579 5579 5578 5578 5578 5579 5581 5583 5586 5588 5589 5590 5591 5591 5594 5594 5595 5595 5595 5596 5596 5595 5595 5594 5592 5591 5589 5588 5587 5586 5584 5582
5550 5552 5554 5556 5560 5562 5564 5566 5567 5569 5570 5571 5570 5570 5569 5568 5567 5566 5567 5568 5570 5572 5574 5575 5575 5576 5576 5577 5578 5579 5580 5581 5580 5579 5578 5577 5576 5574 5574 5572 5571 5569 5568 5566
5545 5547 5548 5550 5554 5555 5557 5559 5560 5561 5561 5561 5561 5560 5559 5558 5557 5556 5556 5555 5555 5557 5559 5560 5560 5562 5561 5560 5562 5563 5564 5564 5564 5564 5562 5561 5560 5558 5555 5555 5553 5551 5550 5548
5539 5540 5542 5543 5545 5546 5548 5549 5550 5550 5551 5551 5550 5550 5549 5547 5545 5544 5544 5543 5542 5542 5542 5545 5546 5547 5544 5546 5546 5547 5548 5548 5547 5546 5546 5545 5544 5542 5541 5537 5535 5533 5531 5529
5531 5532 5534 5535 5536 5536 5536 5537 5538 5539 5539 5540 5540 5538 5537 5536 5534 5532 5532 5531 5531 5529 5528 5527 5530 5530 5531 5532 5530 5531 5529 5530 5530 5528 5528 5528 5528 5526 5523 5520 5518 5515 5512 5509
5522 5524 5525 5525 5525 5525 5525 5524 5524 5524 5524 5526 5526 5526 5525 5524 5523 5519 5518 5516 5517 5516 5515 5516 5514 5514 5515 5516 5514 5512 5511 5508 5508 5506 5506 5508 5507 5505 5504 5500 5498 5496 5493 5491
5512 5513 5513 5513 5513 5513 5512 5511 5510 5510 5510 5510 5510 5510 5511 5512 5510 5510 5507 5506 5503 5504 5503 5503 5501 5501 5500 5500 5499 5495 5494 5493 5494 5493 5493 5490 5488 5488 5488 5485 5482 5479 5476 5473
5501 5501 5501 5501 5501 5500 5499 5499 5498 5498 5497 5497 5496 5495 5495 5496 5498 5495 5493 5492 5491 5490 5491 5490 5489 5489 5488 5486 5484 5483 5482 5481 5479 5478 5478 5475 5473 5471 5469 5467 5464 5461 5458 5455
5491 5489 5488 5487 5488 5488 5488 5487 5487 5487 5485 5484 5483 5482 5483 5483 5483 5481 5481 5480 5480 5479 5479 5477 5476 5475 5475 5474 5473 5470 5470 5467 5465 5464 5463 5462 5459 5456 5452 5450 5446 5442 5438 5434
5481 5479 5478 5477 5475 5475 5475 5475 5475 5475 5474 5473 5471 5470 5469 5469 5469 5469 5468 5467 5466 5466 5466 5464 5463 5462 5460 5458 5457 5455 5453 5452 5450 5447 5445 5444 5441 5438 5434 5430 5427 5424 5419 5414
5470 5468 5466 5465 5464 5464 5463 5463 5463 5463 5462 5461 5459 5458 5456 5456 5455 5454 5453 5453 5452 5452 5450 5449 5448 5447 5445 5444 5441 5438 5436 5434 5431 5429 5427 5423 5420 5418 5414 5410 5406 5401 5397 5391
5461 5458 5456 5455 5453 5452 5452 5451 5451 5451 5450 5449 5447 5446 5445 5444 5443 5442 5441 5439 5438 5436 5434 5433 5432 5430 5428 5426 5423 5420 5417 5414 5412 5409 5406 5403 5401 5397 5393 5388 5384 5379 5374 5369
5453 5450 5448 5445 5443 5441 5441 5440 5440 5439 5438 5437 5436 5434 5432 5431 5430 5428 5427 5425 5423 5421 5420 5418 5416 5414 5412 5409 5406 5404 5401 5398 5395 5392 5389 5385 5381 5377 5372 5368 5363 5357 5352 5347
5443 5440 5437 5434 5432 5431 5430 5429 5428 5428 5427 5425 5423 5421 5419 5418 5416 5414 5413 5410 5408 5406 5404 5401 5399 5397 5395 5392 5390 5387 5384 5381 5378 5374 5370 5366 5362 5358 5353 5347 5341 5335 5329 5323
5432 5429 5427 5424 5422 5421 5420 5418 5417 5415 5414 5412 5410 5408 5406 5404 5403 5401 5399 5396 5394 5392 5389 5387 5384 5381 5379 5376 5372 5369 5366 5362 5358 5354 5350 5346 5340 5335 5330 5324 5319 5313 5307 5300
5424 5421 5419 5416 5414 5412 5410 5408 5406 5404 5402 5400 5398 5395 5393 5391 5389 5386 5384 5381 5378 5376 5373 5370 5367 5364 5361 5357 5354 5350 5346 5342 5337 5333 5328 5323 5318 5314 5309 5304 5299 5294 5289 5283
5416 5413 5410 5407 5405 5402 5400 5397 5394 5392 5389 5386 5383 5381 5378 5375 5372 5370 5367 5364 5361 5358 5355 5351 5348 5344 5340 5336 5333 5329 5325 5321 5317 5312 5308 5304 5300 5297 5292 5288 5283 5277 5271 5265
5405 5402 5398 5394 5391 5388 5385 5382 5378 5375 5372 5369 5366 5363 5360 5357 5354 5351 5348 5345 5341 5338 5335 5331 5328 5324 5321 5317 5314 5310 5307 5304 5301 5297 5294 5289 5285 5281 5276 5271 5266 5261 5255 5248
Wind_Speed
36 34 34 34 34 33 35 36 35 35 36 30 28 29 29 28 32 35 33 32 31 33 32 30 30 31 32 30 31 29 27 25 26 28 28 27 26 26 28 29 30 32 32 31
25 27 29 28 27 25 27 30 34 33 32 31 26 28 30 31 37 38 36 36 35 35 34 33 35 35 38 36 33 33 32 31 32 30 32 32 31 28 27 29 32 36 34 35
25 25 26 27 24 24 24 25 27 28 30 26 26 27 26 27 26 40 37 38 39 41 40 39 39 38 38 37 37 37 38 35 33 33 30 31 33 32 31 32 35 36 37 37
29 26 26 29 28 29 29 26 27 30 31 31 29 28 30 29 26 26 28 39 39 39 40 39 40 42 40 41 40 37 39 39 37 30 32 37 39 39 39 38 35 36 38 39
32 37 33 29 29 29 30 30 31 33 33 31 30 32 32 30 29 27 28 29 35 35 38 39 41 41 43 45 43 38 38 38 36 37 37 38 36 36 41 43 43 42 40 39
46 43 36 35 30 28 30 34 35 36 36 37 36 35 38 37 35 34 35 34 34 34 35 35 36 37 41 41 44 43 41 40 39 39 39 40 39 38 43 42 45 46 46 45
44 46 45 42 44 40 36 35 36 39 41 39 37 37 36 40 41 38 38 40 38 32 37 37 36 41 38 34 35 39 43 42 42 44 46 47 46 42 38 38 40 43 47 49
41 43 47 47 48 49 49 46 46 46 48 48 48 48 50 47 40 39 39 40 42 40 38 38 42 43 41 39 36 41 45 47 49 48 49 51 53 53 49 47 45 46 46 45
24 26 29 29 29 32 37 42 45 47 50 49 44 43 47 53 49 46 44 41 43 42 41 42 44 42 43 45 45 47 46 52 50 54 55 56 56 58 55 55 49 51 44 42
21 21 22 17 15 15 16 18 20 20 22 26 29 30 33 35 37 45 53 50 48 44 45 45 46 48 47 48 50 50 50 50 52 52 55 57 59 58 57 58 58 47 48 48
22 22 22 21 20 20 19 18 20 20 19 21 23 27 31 33 36 37 40 50 51 47 44 50 50 51 52 52 52 54 52 50 51 52 57 58 59 61 60 61 59 53 53 54
25 26 28 28 26 27 26 26 25 27 28 29 28 30 32 35 37 36 38 39 48 54 48 46 51 53 57 60 58 53 51 49 49 49 52 54 55 59 65 60 57 56 58 55
25 27 28 31 32 33 34 35 34 33 34 36 36 36 39 41 42 36 37 37 39 40 46 51 46 47 56 54 53 52 53 54 47 51 60 61 59 63 56 57 59 62 63 65
28 30 34 35 37 38 39 39 40 41 42 42 40 42 42 42 39 40 42 41 39 35 40 44 49 54 56 54 54 57 59 59 59 54 53 54 57 59 63 65 66 58 63 69
31 33 36 38 39 42 44 46 48 49 49 47 48 50 47 47 46 39 37 46 44 46 43 40 38 50 59 52 61 60 53 58 60 51 48 53 52 46 52 54 51 53 48 55
33 35 37 39 40 43 46 47 49 50 50 49 48 47 47 44 43 41 41 31 39 43 43 43 41 43 45 53 55 51 50 49 50 55 59 52 56 53 48 55 55 52 54 57
31 35 37 39 40 42 44 44 38 39 41 40 41 40 41 44 44 32 28 31 31 32 38 41 43 43 44 44 44 46 48 51 54 58 66 62 59 58 61 60 59 55 55 61
39 42 44 44 45 44 44 41 43 40 32 34 36 37 39 42 46 53 40 38 39 38 40 41 44 45 47 50 50 47 50 52 51 52 56 58 59 60 60 62 63 64 67 69
40 41 43 42 42 41 41 40 39 38 33 36 36 36 39 37 35 40 42 42 43 45 44 44 44 46 49 51 53 54 57 59 59 57 56 57 57 58 60 62 64 67 70 73
35 35 37 39 37 36 41 41 38 37 36 38 36 36 36 38 39 40 42 44 46 48 48 48 50 52 53 52 52 52 54 55 57 61 62 60 61 64 66 68 71 72 75 78
24 28 30 33 37 40 40 40 40 40 41 37 37 36 36 38 42 46 48 48 49 50 51 52 54 55 55 55 55 56 57 58 59 61 61 62 65 67 67 70 72 73 73 74
29 28 29 33 33 32 37 39 40 38 36 37 40 42 42 43 43 43 44 46 48 50 53 55 56 56 56 57 57 58 58 59 60 61 62 62 62 64 66 67 69 70 73 76
38 39 42 36 32 33 31 31 34 38 43 45 44 44 44 44 46 47 48 48 48 47 47 47 48 49 49 50 51 52 54 55 57 59 61 63 66 68 70 73 75 78 80 82
36 34 30 27 28 31 33 35 37 38 39 38 37 37 39 40 40 41 42 43 44 44 46 47 49 51 53 56 58 60 62 65 67 69 70 72 74 76 77 78 79 77 74 71
25 26 25 24 25 26 28 30 31 33 34 36 37 39 40 42 44 46 48 49 51 53 55 57 59 61 63 64 66 67 69 70 72 74 74 73 71 68 64 61 59 57 56 57
30 31 32 33 35 36 37 38 39 41 42 44 45 47 48 50 52 54 55 57 59 61 62 64 65 67 68 68 68 67 66 65 62 58 55 52 50 49 48 48 50 51 53 54
40 42 43 45 46 47 49 50 51 52 52 53 54 55 56 57 59 60 61 61 61 62 62 61 59 58 55 52 49 46 44 43 42 43 43 43 43 44 46 48 50 52 52 51
Wind_Direction
222 229 231 233 233 233 237 243 248 248 254 252 253 254 248 237 225 223 225 234 237 237 248 254 255 251 254 262 270 268 268 272 271 264 264 265 266 266 266 269 270 269 269 269
222 222 232 235 237 236 238 242 245 248 253 258 260 261 256 250 226 226 227 230 236 241 247 254 256 258 262 263 266 264 270 270 268 266 265 260 264 268 269 268 268 269 268 266
230 232 234 238 237 240 245 246 250 257 260 260 258 262 262 257 253 225 230 231 233 237 243 246 250 257 259 263 266 266 272 269 269 271 266 267 264 263 267 269 270 273 271 270
227 243 242 243 243 247 253 251 250 253 255 256 258 258 259 262 259 250 235 231 236 235 237 244 248 246 248 254 259 265 271 272 274 266 264 266 265 268 269 265 263 267 270 270
231 225 222 234 242 245 242 247 250 255 257 264 268 267 262 262 262 261 256 251 242 241 242 244 247 241 244 246 252 253 255 263 263 266 267 269 274 271 269 268 267 265 262 263
228 227 228 231 236 240 244 246 248 253 258 257 258 261 264 265 264 262 261 257 257 247 248 245 251 257 241 237 242 247 251 256 255 258 260 265 273 274 275 271 268 266 266 265
237 241 243 243 247 245 251 248 251 252 252 253 255 259 262 266 266 264 263 262 262 260 250 248 250 260 248 247 245 240 246 247 251 257 259 264 269 273 275 271 269 269 267 265
238 240 246 246 249 254 257 255 253 258 259 262 268 269 267 264 265 268 263 262 262 260 257 260 258 258 256 251 259 248 249 253 256 259 259 261 267 267 270 271 274 276 273 269
231 236 243 248 247 249 249 251 255 256 260 267 271 272 270 265 262 260 264 263 260 259 257 253 256 257 260 259 256 254 258 255 259 263 263 259 263 264 272 269 272 277 276 274
226 232 240 237 230 225 220 228 236 245 257 267 275 280 279 279 275 270 260 262 264 257 257 254 255 259 261 263 258 254 255 254 256 258 261 263 264 268 267 271 270 277 276 282
227 231 238 244 244 242 243 245 251 260 265 283 290 293 290 284 277 276 273 261 260 259 262 254 255 257 259 258 257 256 256 258 257 257 260 260 262 264 263 266 267 276 280 280
235 239 244 248 252 256 254 256 262 268 276 280 288 293 298 299 289 281 274 270 265 263 265 260 254 251 260 259 259 261 265 267 262 260 261 260 267 275 269 268 271 270 276 277
244 250 254 259 262 264 263 262 265 270 274 276 281 286 296 295 290 274 273 271 267 268 272 266 258 256 252 256 259 260 258 257 259 259 260 263 268 274 271 279 277 277 277 279
252 256 258 261 263 265 264 264 266 269 273 272 274 282 292 287 282 269 260 258 261 262 266 261 258 257 258 235 247 255 258 257 257 259 260 262 267 268 270 267 263 260 262 264
262 263 264 265 265 265 266 267 268 271 273 273 274 278 280 277 279 274 268 261 262 270 267 265 264 256 254 251 246 237 240 248 240 242 244 258 251 258 259 255 260 270 273 271
267 267 268 269 269 270 270 271 272 273 274 274 274 271 268 270 271 265 256 265 269 253 269 269 270 267 261 258 263 271 271 272 269 261 258 260 274 280 271 268 279 278 281 283
263 268 268 270 269 268 267 269 271 274 271 276 270 269 265 260 253 265 258 265 277 279 277 278 273 272 275 273 270 271 274 275 272 269 270 274 275 278 279 280 279 276 273 278
270 268 267 267 268 272 271 275 272 275 267 273 274 268 260 266 267 270 262 274 278 281 285 283 283 282 278 276 278 281 279 280 279 277 275 274 275 278 279 278 277 278 279 279
268 269 269 269 272 266 270 270 269 268 271 276 272 269 254 253 261 266 269 275 279 283 281 278 281 283 284 283 283 282 282 281 281 281 281 281 280 278 276 276 277 278 278 279
275 274 272 271 267 262 268 270 264 264 268 275 264 271 266 264 266 270 272 270 274 278 280 279 279 279 279 281 280 279 277 276 276 278 278 279 280 278 276 276 276 277 279 280
286 281 281 279 274 267 264 264 265 265 270 273 269 272 272 270 271 270 270 271 274 277 278 278 279 280 277 275 276 277 278 278 276 275 275 274 274 275 276 276 277 280 281 282
289 291 289 287 278 273 272 272 272 269 265 271 274 273 272 272 274 275 276 276 276 278 279 279 279 277 277 277 278 278 278 277 277 277 278 278 280 281 282 283 285 285 285 286
284 290 295 289 272 266 267 268 268 264 266 271 275 276 273 271 272 273 273 274 275 276 277 278 278 279 279 279 280 281 281 282 282 282 283 284 284 284 286 287 288 288 288 289
286 287 283 280 273 269 268 267 267 268 270 271 272 272 273 273 274 274 275 276 277 278 279 280 281 282 282 283 284 284 285 285 286 286 287 287 288 288 289 290 290 290 291 292
283 283 282 280 278 276 275 274 274 274 275 275 276 277 277 277 278 279 280 281 282 284 284 285 285 285 285 285 285 285 286 287 288 288 289 289 290 290 290 289 290 291 292 293
291 290 288 286 284 282 281 280 279 279 279 280 280 281 281 282 282 283 284 284 284 284 285 286 287 288 289 289 290 290 290 290 290 290 289 289 289 289 290 292 295 298 300 301
291 290 288 285 283 281 280 279 279 279 280 281 282 283 285 286 287 288 290 290 290 290 291 290 290 290 290 290 291 291 290 289 288 289 289 290 292 294 296 297 300 302 303 303